Anselmo, NE

7:02 AM CDT on October 01, 2014 (GMT -0500)
Broken Bow Municipal | Change Station
CLOSE
Current Station
Airport
Location: Broken Bow,
Elevation: 2546 ft
Nearby Weather Stations

Elev 2546 ft 41.44 °N, 99.64 °W | Updated 9 minutes ago

Mostly Cloudy
Mostly Cloudy
53 °F
Feels Like 53 °F
N
5
Wind Variable Wind from NW

Today
High -- | Low -- °F
--% Chance of Precip.
Yesterday
High -- | Low -- °F
Precip. -- in
7:35 AM 7:20 PM
Waxing Crescent, 47% visible
Pressure 29.71 in
Visibility 10.0 miles
Clouds Scattered Clouds 12000 ft
Dew Point 50 °F
Humidity 89%
Rainfall 0.03 in
Snow Depth Not available.
UV 0 out of 12
Pollen 4.00 out of 12
Air Quality Not available.
Flu Activity Not available.
METAR KBBW 011153Z AUTO 32004KT 10SM SCT120 12/10 A2975 RMK AO2 SLP059 P0001 60002 70002 T01170100 10183 20117 55003

More Conditions Fewer Conditions

Pressure 29.71 in
Visibility 10.0 miles
Clouds Scattered Clouds 12000 ft
Dew Point 50 °F
Humidity 89%
Rainfall 0.03 in
Snow Depth Not available.
UV 0 out of 12
Pollen 4.00 out of 12
Air Quality Not available.
Flu Activity Not available.
METAR KBBW 011153Z AUTO 32004KT 10SM SCT120 12/10 A2975 RMK AO2 SLP059 P0001 60002 70002 T01170100 10183 20117 55003

More Conditions Fewer Conditions

10-Day Weather Forecast

Almanac

Astronomy

Oct. 01, 2014 Rise Set
Actual Time 7:35 AM CDT 7:20 PM CDT
Civil Twilight 7:08 AM CDT 7:48 PM CDT
Nautical Twilight 6:36 AM CDT 8:20 PM CDT
Astronomical Twilight 6:03 AM CDT 8:53 PM CDT
Moon 2:41 PM CDT No Moon Set
Length of Visible Light 12h 40m
Length of Day
11h 44m
Tomorrow will be 2m 45s shorter.
Waxing Crescent, 47% of the Moon is Illuminated
Today
Waxing Crescent
Oct 1
First Quarter
Oct 8
Full
Oct 15
Last Quarter
Oct 23
New

Today's Extremes

State Highs State Lows

Community

WunderPhotos

Upload Photos

1,757,914 photos uploaded!

WunderBlogs® & News

Nearby

Snow Depth

Station Depth Elevation
No new snow has been reported.

Earthquake Activity

City Distance Mag. Time & Date
No recent earthquake activity has been reported nearby.
Minimum magnitude displayed is 2.5.

Coastal Water Temperatures

Place Temperature
No Stations Reporting

Nearby Weather Stations